This is the latest recevied weather packets stored in our database for station/object KM4CBK. If no packets are shown the sender has not sent any weather packets the latest 10 day(s).
| Time | Temp. | Humidity | Pressure | Rain* | Wind** | Luminosity | Snow |
|---|---|---|---|---|---|---|---|
| 1777899125 | 11.67° C | 96% | 1017.5 hPa | 0 mm | - | 42 W/m² | - |
| 1777898822 | 11.11° C | 99% | 1017.5 hPa | 0 mm | - | 42 W/m² | - |
| 1777898519 | 10.56° C | 99% | 1017.4 hPa | 0 mm | - | 31 W/m² | - |
| 1777898216 | 10.56° C | 99% | 1017.3 hPa | 0 mm | - | 37 W/m² | - |
| 1777897914 | 10.56° C | 99% | 1017.5 hPa | 0 mm | - | 29 W/m² | - |
| 1777897609 | 10° C | 99% | 1017.4 hPa | 0 mm | - | 31 W/m² | - |
| 1777897305 | 9.44° C | 99% | 1017.3 hPa | 0 mm | - | 31 W/m² | - |
| 1777897001 | 9.44° C | 99% | 1017.2 hPa | 0 mm | - | 23 W/m² | - |
| 1777896699 | 9.44° C | 99% | 1017.2 hPa | 0 mm | - | 16 W/m² | - |
| 1777896395 | 9.44° C | 99% | 1017.4 hPa | 0 mm | - | 22 W/m² | - |
| 1777896093 | 8.89° C | 99% | 1017.3 hPa | 0 mm | - | 24 W/m² | - |
| 1777895791 | 8.89° C | 99% | 1017.3 hPa | 0 mm | - | 37 W/m² | - |
| 1777895488 | 8.33° C | 99% | 1017.2 hPa | 0 mm | - | 48 W/m² | - |
| 1777895186 | 7.78° C | 99% | 1017.2 hPa | 0 mm | - | 43 W/m² | - |
| 1777894883 | 7.22° C | 99% | 1017.2 hPa | 0 mm | - | 29 W/m² | - |
| 1777894580 | 7.78° C | 99% | 1017.3 hPa | 0 mm | - | 18 W/m² | - |
| 1777894278 | 7.22° C | 99% | 1017.1 hPa | 0 mm | - | 16 W/m² | - |
| 1777893974 | 7.22° C | 99% | 1016.8 hPa | 0 mm | - | 12 W/m² | - |
| 1777893671 | 6.67° C | 99% | 1016.9 hPa | 0 mm | - | 11 W/m² | - |
| 1777893367 | 6.67° C | 99% | 1017 hPa | 0 mm | - | 6 W/m² | - |
| 1777893063 | 6.67° C | 99% | 1017 hPa | 0 mm | - | 4 W/m² | - |
| 1777892761 | 6.67° C | 99% | 1016.7 hPa | 0 mm | - | 2 W/m² | - |
| 1777892456 | 6.67° C | 99% | 1016.9 hPa | 0 mm | - | 1 W/m² | - |
| 1777892152 | 6.67° C | 99% | 1016.9 hPa | 0 mm | - | 0 W/m² | - |
| 1777891849 | 6.67° C | 99% | 1016.9 hPa | 0 mm | - | 0 W/m² | - |
* Rain latest hour (hover to see other rain measurements)
** Current wind speed in m/s (hover to see current wind gust speed)